�N����,����,�~����,�C��,���x,�C��,����,���ϕ���,�ő�u�ԕ���,�ő厞����,���˗�,�I�_���x,�n�����x,�ő啗���N��,DTYPE
"16/09/27","00:10",0.0,22.4,95.9,1012.8,312.5,1.2,1.6,333.2,0.00,21.8,23.8,"00:02:00",1
"16/09/27","00:20",0.0,22.4,95.7,1013.0,290.0,0.8,1.3,327.3,0.00,21.7,23.9,"00:14:24",1
"16/09/27","00:30",0.0,22.5,95.7,1013.0,303.2,0.8,1.4,310.6,0.00,21.8,23.7,"00:20:08",1
"16/09/27","00:40",0.0,22.6,95.5,1013.0,307.0,1.2,1.7,333.7,0.00,21.9,23.7,"00:36:00",1
"16/09/27","00:50",0.0,22.5,95.2,1013.0,306.8,1.1,1.4,312.2,0.00,21.7,23.8,"00:45:20",1
"16/09/27","01:00",0.0,22.4,95.2,1012.8,312.8,1.1,1.8,321.5,0.00,21.6,23.8,"00:50:40",1
"16/09/27","01:10",0.0,22.1,95.0,1013.0,287.3,0.7,1.2,312.6,0.00,21.3,23.7,"01:00:24",1
"16/09/27","01:20",0.0,21.8,95.1,1013.0,299.9,1.0,1.3,322.9,0.00,21.0,23.8,"01:17:36",1
"16/09/27","01:30",0.0,21.6,95.3,1013.0,302.3,0.7,1.3,324.0,0.00,20.9,23.7,"01:28:00",1
"16/09/27","01:40",0.0,21.3,95.2,1012.8,301.7,0.6,0.9,309.9,0.00,20.5,23.7,"01:30:16",1
"16/09/27","01:50",0.0,21.1,95.5,1012.8,315.5,1.1,1.3,325.0,0.00,20.4,23.5,"01:43:12",1
"16/09/27","02:00",0.0,21.1,95.7,1012.6,325.7,0.8,1.7,342.5,0.00,20.4,23.4,"01:51:20",1
"16/09/27","02:10",0.0,21.0,95.8,1012.8,295.7,0.8,1.2,331.9,0.00,20.3,23.5,"02:04:56",1
"16/09/27","02:20",0.0,20.9,96.0,1012.8,309.7,1.0,1.4,324.3,0.00,20.3,23.5,"02:14:40",1
"16/09/27","02:30",0.0,20.8,96.0,1012.6,305.4,0.3,1.2,315.7,0.00,20.2,23.2,"02:21:36",1
"16/09/27","02:40",0.0,20.7,96.1,1012.8,303.7,0.6,1.3,325.3,0.00,20.1,23.4,"02:33:28",1
"16/09/27","02:50",0.0,20.6,96.3,1012.8,318.5,0.7,1.1,323.6,0.00,20.0,23.2,"02:47:12",1
"16/09/27","03:00",0.0,20.5,96.5,1012.8,317.9,0.8,1.3,320.8,0.00,20.0,23.2,"02:54:48",1
"16/09/27","03:10",0.0,20.4,96.6,1012.6,317.6,1.0,1.8,335.1,0.00,19.9,23.1,"03:04:40",1
"16/09/27","03:20",0.0,20.4,96.6,1012.1,297.5,0.7,1.0,317.0,0.00,19.9,23.2,"03:18:08",1
"16/09/27","03:30",0.0,20.3,96.7,1012.6,281.9,0.7,1.0,272.2,0.00,19.8,23.1,"03:20:32",1
"16/09/27","03:40",0.0,20.3,96.7,1012.6,304.9,0.8,1.4,321.9,0.00,19.8,23.0,"03:30:02",1
"16/09/27","03:50",0.0,20.2,97.0,1012.3,317.9,1.1,1.6,317.1,0.00,19.7,22.9,"03:42:32",1
"16/09/27","04:00",0.0,20.1,97.0,1012.3,302.0,0.5,0.9,324.6,0.00,19.6,22.7,"03:58:08",1
"16/09/27","04:10",0.0,20.1,97.0,1012.6,305.1,0.8,1.2,322.6,0.00,19.6,23.0,"04:07:04",1
"16/09/27","04:20",0.0,20.1,97.0,1012.6,310.0,1.0,1.4,329.0,0.00,19.6,22.8,"04:15:04",1
"16/09/27","04:30",0.0,20.0,97.1,1012.3,312.8,1.0,1.4,322.7,0.00,19.6,22.9,"04:23:12",1
"16/09/27","04:40",0.0,19.9,97.0,1012.1,307.2,0.8,1.6,319.3,0.00,19.4,22.8,"04:34:56",1
"16/09/27","04:50",0.0,19.8,97.2,1012.3,300.9,0.7,1.0,317.2,0.00,19.4,22.7,"04:47:20",1
"16/09/27","05:00",0.0,19.8,97.2,1012.3,307.7,0.7,1.3,322.1,0.00,19.4,22.7,"04:55:12",1
"16/09/27","05:10",0.0,19.8,97.4,1012.3,322.3,1.2,1.4,335.1,0.00,19.4,22.6,"05:03:44",1
"16/09/27","05:20",0.0,19.8,97.3,1012.6,312.5,1.0,1.4,341.2,0.00,19.4,22.6,"05:11:36",1
"16/09/27","05:30",0.0,19.7,97.4,1012.8,297.0,0.8,1.1,319.5,0.00,19.3,22.8,"05:28:56",1
"16/09/27","05:40",0.0,19.8,97.4,1012.3,314.4,1.0,1.4,325.6,0.00,19.4,22.6,"05:34:24",1
"16/09/27","05:50",0.0,19.7,97.4,1012.6,310.7,1.1,1.6,318.0,0.00,19.3,22.4,"05:42:00",1
"16/09/27","06:00",0.0,19.7,97.4,1012.6,308.0,0.7,1.1,323.9,0.00,19.3,22.5,"05:53:36",1
"16/09/27","06:10",0.0,19.8,97.7,1012.6,309.2,1.1,1.4,326.2,0.00,19.5,22.5,"06:04:32",1
"16/09/27","06:20",0.0,20.0,97.7,1012.8,322.9,0.7,1.2,320.5,0.00,19.7,22.5,"06:10:16",1
"16/09/27","06:30",0.0,20.5,97.7,1012.8,312.2,0.7,1.2,322.3,0.00,20.2,22.5,"06:26:00",1
"16/09/27","06:40",0.0,21.2,97.3,1012.6,311.3,0.3,0.8,307.7,0.00,20.8,22.3,"06:31:36",1
"16/09/27","06:50",0.0,21.5,97.1,1013.0,325.8,0.2,1.2,338.5,0.01,21.1,22.4,"06:49:52",1
"16/09/27","07:00",0.0,22.0,95.9,1012.8,346.1,0.5,1.2,345.5,0.01,21.4,22.5,"06:50:16",1
"16/09/27","07:10",0.0,22.5,95.6,1012.8,317.9,0.6,1.1,328.6,0.02,21.8,22.5,"07:00:48",1
"16/09/27","07:20",0.0,22.8,94.0,1012.6,336.7,0.7,1.2,322.5,0.02,21.8,22.4,"07:13:12",1
"16/09/27","07:30",0.0,24.2,89.1,1012.8,19.0,0.3,1.0,7.1,0.05,22.3,22.8,"07:24:00",1
"16/09/27","07:40",0.0,25.3,85.0,1012.3,22.6,0.3,0.9,10.3,0.07,22.6,22.5,"07:31:52",1
"16/09/27","07:50",0.0,26.7,81.8,1012.3,181.5,0.1,0.9,26.0,0.09,23.4,22.9,"07:48:40",1
"16/09/27","08:00",0.0,26.7,78.7,1012.1,174.5,0.3,1.0,212.9,0.15,22.7,23.0,"07:58:00",1
"16/09/27","08:10",0.0,26.8,78.8,1012.6,188.0,0.5,1.6,227.3,0.15,22.8,23.2,"08:05:04",1
"16/09/27","08:20",0.0,26.8,77.7,1012.3,196.6,0.5,1.0,216.5,0.16,22.6,23.3,"08:11:20",1
"16/09/27","08:30",0.0,27.1,75.5,1012.3,120.4,0.3,0.9,8.3,0.15,22.4,23.6,"08:25:44",1
"16/09/27","08:40",0.0,27.4,74.3,1012.3,43.3,0.5,1.2,351.9,0.16,22.5,23.7,"08:31:04",1
"16/09/27","08:50",0.0,27.6,72.7,1011.4,55.5,0.5,1.4,311.3,0.19,22.3,23.7,"08:49:04",1
"16/09/27","09:00",0.0,28.4,71.2,1011.9,120.2,0.8,2.4,128.9,0.29,22.7,24.2,"08:55:28",1
"16/09/27","09:10",0.0,29.0,69.4,1012.1,138.7,0.8,2.1,111.6,0.37,22.9,24.2,"09:09:36",1
"16/09/27","09:20",0.0,29.4,66.6,1012.6,128.3,1.1,2.2,128.4,0.45,22.6,24.6,"09:14:16",1
"16/09/27","09:30",0.0,29.2,68.5,1012.3,163.9,1.3,3.6,144.2,0.42,22.8,24.6,"09:27:12",1
"16/09/27","09:40",0.0,29.3,66.4,1012.6,127.8,1.3,2.7,127.2,0.42,22.4,25.1,"09:37:20",1
"16/09/27","09:50",0.0,29.2,67.3,1012.1,105.3,1.0,2.1,101.9,0.33,22.6,25.2,"09:45:12",1
"16/09/27","10:00",0.0,29.5,66.5,1012.1,72.7,1.0,2.2,67.6,0.37,22.6,25.5,"09:53:28",1
"16/09/27","10:10",0.0,29.9,66.0,1012.3,112.0,1.1,2.8,133.9,0.44,22.9,25.7,"10:06:24",1
"16/09/27","10:20",0.0,29.8,65.2,1012.6,130.7,1.2,3.9,130.2,0.46,22.6,25.8,"10:13:44",1
"16/09/27","10:30",0.0,29.3,67.3,1011.9,116.4,0.8,2.9,162.8,0.31,22.7,26.2,"10:29:36",1
"16/09/27","10:40",0.0,29.7,67.0,1011.9,121.8,1.1,2.7,117.4,0.31,23.0,26.3,"10:30:40",1
"16/09/27","10:50",0.0,29.8,65.6,1011.9,110.3,0.8,2.1,222.2,0.27,22.7,26.5,"10:49:36",1
"16/09/27","11:00",0.0,29.5,67.4,1011.6,163.1,1.5,2.7,196.5,0.31,22.9,26.6,"10:50:08",1
"16/09/27","11:10",0.0,30.8,65.7,1011.4,117.0,1.1,3.1,140.2,0.47,23.7,26.6,"11:05:08",1
"16/09/27","11:20",0.0,30.4,66.7,1011.4,125.0,1.0,2.1,220.6,0.36,23.5,26.8,"11:12:32",1
"16/09/27","11:30",0.0,30.3,66.3,1011.4,97.0,1.1,2.5,97.3,0.30,23.4,27.0,"11:22:56",1
"16/09/27","11:40",0.0,30.3,65.3,1010.9,82.9,0.8,2.1,111.2,0.24,23.1,26.9,"11:30:48",1
"16/09/27","11:50",0.0,31.0,66.0,1010.9,82.5,0.8,2.4,109.3,0.33,23.9,27.2,"11:49:44",1
"16/09/27","12:00",0.0,31.2,62.8,1010.9,87.4,1.0,2.6,126.0,0.38,23.3,27.1,"11:59:52",1
"16/09/27","12:10",0.0,31.1,62.1,1010.9,132.3,1.0,2.2,88.4,0.41,23.0,27.4,"12:04:40",1
"16/09/27","12:20",0.0,31.1,63.5,1010.9,108.2,1.0,2.5,28.4,0.31,23.4,27.4,"12:11:20",1
"16/09/27","12:30",0.0,30.4,65.8,1010.9,133.9,0.8,1.8,128.1,0.19,23.3,27.6,"12:27:52",1
"16/09/27","12:40",0.0,30.5,64.9,1010.4,54.9,0.5,1.6,37.9,0.17,23.2,27.6,"12:32:08",1
"16/09/27","12:50",0.0,30.5,65.2,1010.2,55.0,0.8,2.0,21.5,0.16,23.3,27.7,"12:45:04",1
"16/09/27","13:00",0.0,30.7,65.2,1009.7,29.5,1.0,2.2,12.9,0.21,23.5,27.8,"12:52:40",1
"16/09/27","13:10",0.0,30.6,64.1,1010.0,29.5,0.7,2.2,15.6,0.21,23.1,27.5,"13:08:08",1
"16/09/27","13:20",0.0,30.5,65.6,1009.5,44.2,1.0,2.2,23.6,0.18,23.4,27.4,"13:15:52",1
"16/09/27","13:30",0.0,30.3,66.8,1009.5,71.5,0.8,2.1,18.5,0.14,23.5,27.7,"13:27:28",1
"16/09/27","13:40",0.0,30.1,67.1,1009.3,57.8,0.8,1.8,44.2,0.12,23.4,27.5,"13:30:40",1
"16/09/27","13:50",0.0,30.1,68.2,1009.3,32.8,0.6,1.4,9.6,0.12,23.6,27.6,"13:43:12",1
"16/09/27","14:00",0.0,30.1,67.4,1008.8,28.1,0.5,1.1,70.6,0.10,23.4,27.5,"13:52:48",1
"16/09/27","14:10",0.0,30.3,69.2,1008.8,64.3,0.3,1.9,35.2,0.12,24.1,27.6,"14:08:16",1
"16/09/27","14:20",0.0,30.3,66.9,1008.8,69.4,0.7,1.4,84.3,0.08,23.5,27.5,"14:14:40",1
"16/09/27","14:30",0.0,29.9,67.6,1008.3,35.0,0.7,1.8,13.5,0.04,23.3,27.5,"14:22:00",1
"16/09/27","14:40",0.0,29.7,68.2,1008.3,53.8,0.6,2.0,23.5,0.06,23.2,27.2,"14:36:32",1
"16/09/27","14:50",0.0,29.9,69.2,1008.6,57.5,0.7,1.4,75.5,0.12,23.7,27.4,"14:42:40",1
"16/09/27","15:00",0.0,30.1,66.5,1008.3,51.1,0.8,2.1,8.9,0.10,23.2,27.1,"14:57:20",1
"16/09/27","15:10",0.0,30.4,68.1,1007.8,43.0,1.0,2.2,32.5,0.20,23.9,27.4,"15:00:40",1
"16/09/27","15:20",0.0,30.6,66.2,1008.3,17.3,0.8,3.2,346.2,0.27,23.6,27.2,"15:13:28",1
"16/09/27","15:30",0.0,30.4,66.8,1008.8,89.4,1.0,2.5,20.6,0.22,23.6,27.2,"15:27:12",1
"16/09/27","15:40",0.0,30.5,67.3,1008.8,93.3,0.7,1.7,121.6,0.17,23.8,27.3,"15:36:24",1
"16/09/27","15:50",0.0,30.6,65.5,1009.0,55.4,0.7,1.9,48.9,0.15,23.4,27.2,"15:44:48",1
"16/09/27","16:00",0.0,30.3,65.3,1008.8,64.1,1.0,2.4,19.7,0.08,23.1,27.1,"15:52:56",1
"16/09/27","16:10",0.0,30.4,65.8,1008.3,73.5,0.7,1.8,31.4,0.05,23.3,27.2,"16:08:16",1
"16/09/27","16:20",0.0,30.4,66.5,1008.3,61.2,0.6,1.6,63.5,0.02,23.5,27.1,"16:13:28",1
"16/09/27","16:30",0.0,30.4,66.3,1008.3,81.7,0.7,1.8,97.1,0.03,23.4,26.9,"16:22:00",1
"16/09/27","16:40",0.0,30.3,67.5,1007.8,71.8,0.6,1.6,42.4,0.04,23.6,26.8,"16:32:24",1
"16/09/27","16:50",0.0,30.2,66.8,1007.8,52.3,1.0,3.7,14.0,0.04,23.4,27.2,"16:45:20",1
"16/09/27","17:00",0.0,29.8,68.4,1007.8,90.4,1.0,2.2,66.7,0.03,23.4,26.7,"16:53:52",1
"16/09/27","17:10",0.0,29.6,69.5,1007.6,67.2,0.7,1.8,76.4,0.03,23.5,26.9,"17:00:48",1
"16/09/27","17:20",0.0,29.2,70.2,1007.6,55.4,0.7,2.1,40.7,0.01,23.3,27.0,"17:16:24",1
"16/09/27","17:30",0.0,28.9,71.5,1007.8,42.3,0.7,2.1,356.8,0.01,23.3,26.6,"17:27:36",1
"16/09/27","17:40",0.0,28.5,73.7,1007.4,352.9,0.5,1.7,11.4,0.00,23.4,26.7,"17:30:32",1
"16/09/27","17:50",0.0,27.8,76.7,1008.3,284.9,0.3,0.8,321.0,0.00,23.4,26.7,"17:42:24",1
"16/09/27","18:00",0.0,27.2,79.6,1008.1,276.2,0.2,0.6,305.7,0.00,23.4,26.6,"17:57:36",1
"16/09/27","18:10",0.0,26.6,81.6,1008.3,269.8,0.3,0.8,262.8,0.00,23.2,26.4,"18:02:00",1
"16/09/27","18:20",0.0,26.1,83.1,1008.1,291.2,0.2,0.5,322.2,0.00,23.0,26.3,"18:10:32",1
"16/09/27","18:30",0.0,25.8,84.2,1008.3,297.9,0.2,0.5,334.0,0.00,23.0,26.1,"18:23:52",1
"16/09/27","18:40",0.0,25.5,85.6,1008.6,309.8,0.1,0.5,244.0,0.00,22.9,26.1,"18:31:04",1
"16/09/27","18:50",0.0,25.4,86.9,1008.6,308.6,0.2,1.1,332.5,0.00,23.1,26.1,"18:47:44",1
"16/09/27","19:00",0.0,25.4,86.7,1008.8,290.6,0.2,0.6,251.3,0.00,23.1,26.1,"18:56:56",1
"16/09/27","19:10",0.0,25.6,87.0,1009.3,293.0,0.5,0.8,308.5,0.00,23.3,26.1,"19:04:16",1
"16/09/27","19:20",0.0,25.6,86.1,1009.3,301.5,0.3,0.8,305.5,0.00,23.1,25.9,"19:12:32",1
"16/09/27","19:30",0.0,25.7,86.2,1009.3,289.7,0.3,0.6,313.8,0.00,23.3,25.8,"19:24:00",1
"16/09/27","19:40",0.0,25.6,86.2,1009.3,308.7,0.5,0.8,333.0,0.00,23.2,25.9,"19:37:36",1
"16/09/27","19:50",0.0,25.4,86.1,1009.3,296.3,0.3,0.8,334.4,0.00,22.9,26.0,"19:40:56",1
"16/09/27","20:00",0.0,25.5,86.3,1009.3,292.9,0.5,0.8,307.3,0.00,23.1,25.8,"19:57:12",1
"16/09/27","20:10",0.0,25.4,86.3,1009.5,301.3,0.2,0.6,336.0,0.00,23.0,25.9,"20:00:56",1
"16/09/27","20:20",0.0,25.4,85.9,1009.5,322.5,0.3,1.2,358.6,0.00,22.9,25.7,"20:10:08",1
"16/09/27","20:30",0.0,25.4,85.9,1009.7,330.2,0.6,0.9,345.8,0.00,22.9,25.5,"20:26:56",1
"16/09/27","20:40",0.0,25.4,86.8,1009.7,330.1,0.6,1.2,342.9,0.00,23.1,25.7,"20:33:44",1
"16/09/27","20:50",0.0,25.1,87.7,1009.7,312.2,0.2,0.5,280.6,0.00,23.0,25.5,"20:47:04",1
"16/09/27","21:00",0.0,24.9,88.5,1009.7,330.1,0.6,1.2,353.0,0.00,22.9,25.6,"20:58:40",1
"16/09/27","21:10",0.0,24.7,89.0,1010.0,316.4,0.5,1.1,332.2,0.00,22.8,25.7,"21:00:16",1
"16/09/27","21:20",0.0,24.7,89.1,1009.7,306.7,0.5,0.8,335.9,0.00,22.8,25.4,"21:17:28",1
"16/09/27","21:30",0.0,24.7,89.3,1009.7,325.7,0.7,1.2,2.9,0.00,22.9,25.4,"21:24:40",1
"16/09/27","21:40",0.0,24.6,89.4,1009.5,288.8,0.5,0.8,256.6,0.00,22.8,25.4,"21:38:40",1
"16/09/27","21:50",0.0,24.7,89.1,1010.0,287.3,0.5,0.8,247.5,0.00,22.8,25.3,"21:40:16",1
"16/09/27","22:00",0.0,24.7,89.1,1010.0,293.0,0.3,0.5,283.3,0.00,22.8,25.2,"21:52:24",1
"16/09/27","22:10",0.0,24.7,89.6,1010.0,334.0,0.8,1.6,339.9,0.00,22.9,25.2,"22:00:02",1
"16/09/27","22:20",0.0,24.7,89.9,1009.7,315.5,0.6,1.2,342.1,0.00,23.0,25.3,"22:10:08",1
"16/09/27","22:30",0.0,24.5,90.0,1009.7,297.4,0.5,0.9,319.5,0.00,22.8,25.2,"22:22:08",1
"16/09/27","22:40",0.0,24.3,90.1,1009.5,312.2,0.5,0.9,336.7,0.00,22.6,25.2,"22:33:44",1
"16/09/27","22:50",0.0,24.2,90.7,1010.0,312.0,0.6,1.0,319.7,0.00,22.6,25.3,"22:45:12",1
"16/09/27","23:00",0.0,24.0,91.1,1010.0,296.6,0.6,0.8,300.9,0.00,22.5,25.2,"22:54:16",1
"16/09/27","23:10",0.0,24.0,91.4,1010.0,319.2,0.7,1.3,342.8,0.00,22.6,25.1,"23:04:48",1
"16/09/27","23:20",0.0,24.0,91.3,1010.0,309.6,0.6,0.9,322.9,0.00,22.5,24.9,"23:10:16",1
"16/09/27","23:30",0.0,23.8,91.4,1009.7,295.5,0.5,0.6,312.9,0.00,22.4,24.9,"23:20:40",1
"16/09/27","23:40",0.0,23.7,91.8,1009.5,295.2,0.6,1.1,324.2,0.00,22.3,24.8,"23:36:24",1
"16/09/27","23:50",0.0,23.6,92.1,1009.7,299.7,0.7,1.2,331.1,0.00,22.3,25.1,"23:43:52",1
"16/09/27","24:00",0.0,23.6,92.4,1009.5,273.5,0.6,0.9,338.8,0.00,22.3,25.0,"23:51:04",1
